EZY14UG EGGP-LEMG

Flight info

Callsign EZY14UG
Flight time N/A
Altitude 23000
Route REXAM N42 MIDJO P17 OSSEP/N0450F360 DCT ELNIF DCT ZESPE DCT KLAKI DCT SALCO/N0448F370 DCT NOVAN DCT DELOG DCT CRISA DCT VULPE
Aircraft A320/M-SDE3FGHIRWY/LB1

Departure

Time N/A
Airport Liverpool John Lennon Airport (EGGP)

Arrival

Time 2026-04-30 18:36
Airport Málaga-Costa del Sol Airport (LEMG)
Time Latitude Longitude Altitude Speed Heading
2026-04-30 17:39 41.76960 -4.26957 37120 ft 429 kts 186°
2026-04-30 17:42 41.47252 -4.30072 37112 ft 428 kts 186°
2026-04-30 17:43 41.32409 -4.31641 37115 ft 428 kts 186°
2026-04-30 17:44 41.14587 -4.33491 37115 ft 428 kts 186°
2026-04-30 17:47 40.87830 -4.36246 37112 ft 428 kts 186°
2026-04-30 17:48 40.67045 -4.38382 37103 ft 428 kts 185°
2026-04-30 17:50 40.43261 -4.40812 37093 ft 429 kts 186°
2026-04-30 17:52 40.25406 -4.42623 37085 ft 429 kts 185°
2026-04-30 17:54 39.98622 -4.45300 37074 ft 429 kts 185°
2026-04-30 17:56 39.74825 -4.47686 37070 ft 429 kts 185°
2026-04-30 17:58 39.57041 -4.49450 37066 ft 428 kts 186°
2026-04-30 18:00 39.33310 -4.51783 37064 ft 427 kts 186°
2026-04-30 18:01 39.18527 -4.53236 37059 ft 426 kts 186°
2026-04-30 18:02 39.00803 -4.54957 37050 ft 425 kts 186°
2026-04-30 18:04 38.83245 -4.57726 37066 ft 423 kts 192°
2026-04-30 18:06 38.60003 -4.62682 37050 ft 424 kts 191°
2026-04-30 18:08 38.39614 -4.66896 37055 ft 424 kts 191°
2026-04-30 18:10 38.16326 -4.71671 37056 ft 424 kts 191°
2026-04-30 18:11 38.05657 -4.73852 35452 ft 424 kts 191°
2026-04-30 18:11 37.95926 -4.75836 32513 ft 429 kts 191°
2026-04-30 18:12 37.88001 -4.77439 29810 ft 435 kts 191°
2026-04-30 18:13 37.82022 -4.78644 28061 ft 429 kts 191°
2026-04-30 18:13 37.73268 -4.78835 26005 ft 421 kts 170°
2026-04-30 18:14 37.67644 -4.76884 24618 ft 417 kts 167°
2026-04-30 18:15 37.59315 -4.73972 22533 ft 410 kts 167°
2026-04-30 18:15 37.51227 -4.71148 20779 ft 398 kts 166°
2026-04-30 18:16 37.46072 -4.69349 20487 ft 371 kts 167°
2026-04-30 18:16 37.41271 -4.67679 20239 ft 345 kts 167°
2026-04-30 18:17 37.38994 -4.66870 20057 ft 336 kts 163°
2026-04-30 18:17 37.36879 -4.65653 19704 ft 335 kts 152°
2026-04-30 18:17 37.32864 -4.62704 18844 ft 334 kts 152°
2026-04-30 18:18 37.30874 -4.61237 18559 ft 329 kts 152°
2026-04-30 18:18 37.28903 -4.59789 18148 ft 328 kts 153°
2026-04-30 18:18 37.26834 -4.58654 17744 ft 323 kts 166°
2026-04-30 18:18 37.24647 -4.58164 17284 ft 316 kts 178°
2026-04-30 18:19 37.22463 -4.58125 16553 ft 312 kts 181°
2026-04-30 18:19 37.20308 -4.58113 16032 ft 307 kts 181°
2026-04-30 18:19 37.18180 -4.58099 15603 ft 304 kts 180°
2026-04-30 18:19 37.16073 -4.58085 15174 ft 302 kts 180°
2026-04-30 18:20 37.13979 -4.58073 14753 ft 300 kts 180°
2026-04-30 18:20 37.11887 -4.58060 14335 ft 302 kts 180°
2026-04-30 18:20 37.09817 -4.58047 14179 ft 293 kts 180°
2026-04-30 18:20 37.07807 -4.58031 14060 ft 284 kts 180°
2026-04-30 18:21 37.05862 -4.58013 13923 ft 276 kts 180°
2026-04-30 18:21 37.03951 -4.57996 13585 ft 275 kts 180°
2026-04-30 18:21 37.02040 -4.57982 13295 ft 273 kts 180°
2026-04-30 18:21 37.00130 -4.57967 12892 ft 274 kts 180°
2026-04-30 18:22 36.98242 -4.57949 12628 ft 270 kts 180°
2026-04-30 18:22 36.94709 -4.58624 11808 ft 253 kts 215°
2026-04-30 18:22 36.93593 -4.60263 11424 ft 251 kts 246°
2026-04-30 18:23 36.93307 -4.62414 11052 ft 255 kts 269°
2026-04-30 18:23 36.93329 -4.64653 10684 ft 259 kts 268°
2026-04-30 18:23 36.93543 -4.66888 10371 ft 261 kts 288°
2026-04-30 18:23 36.94602 -4.68722 10029 ft 266 kts 322°
2026-04-30 18:24 36.98145 -4.69605 9757 ft 265 kts 359°
2026-04-30 18:24 36.99971 -4.69620 9639 ft 257 kts 359°
2026-04-30 18:24 37.01753 -4.69632 9534 ft 255 kts 359°
2026-04-30 18:25 37.03520 -4.69645 9451 ft 253 kts 358°
2026-04-30 18:25 37.06648 -4.71158 9198 ft 244 kts 310°
2026-04-30 18:25 37.07522 -4.72938 9138 ft 240 kts 285°
2026-04-30 18:26 37.07265 -4.76943 9034 ft 234 kts 242°
2026-04-30 18:26 37.06320 -4.78585 8980 ft 233 kts 222°
2026-04-30 18:26 37.04965 -4.79675 8934 ft 233 kts 200°
2026-04-30 18:27 37.01750 -4.80035 8756 ft 235 kts 180°
2026-04-30 18:27 37.00114 -4.80016 8480 ft 234 kts 180°
2026-04-30 18:28 36.96891 -4.79986 7869 ft 232 kts 180°
2026-04-30 18:28 36.95277 -4.79969 7558 ft 232 kts 180°
2026-04-30 18:28 36.92109 -4.79483 6933 ft 231 kts 162°
2026-04-30 18:29 36.90577 -4.78811 6620 ft 230 kts 161°
2026-04-30 18:29 36.86268 -4.76318 5538 ft 230 kts 132°
2026-04-30 18:30 36.84227 -4.73435 4904 ft 213 kts 131°
2026-04-30 18:30 36.82346 -4.70781 4312 ft 194 kts 131°
2026-04-30 18:31 36.81469 -4.69547 4044 ft 185 kts 132°
2026-04-30 18:31 36.79833 -4.67242 3550 ft 168 kts 132°
2026-04-30 18:32 36.78300 -4.65086 3093 ft 164 kts 132°
2026-04-30 18:32 36.77549 -4.64029 2851 ft 160 kts 132°
2026-04-30 18:32 36.76137 -4.62043 2428 ft 149 kts 133°
2026-04-30 18:33 36.75467 -4.61102 2221 ft 146 kts 133°
2026-04-30 18:33 36.74148 -4.59249 1834 ft 139 kts 132°
2026-04-30 18:33 36.73511 -4.58355 1638 ft 137 kts 133°
2026-04-30 18:34 36.72882 -4.57471 1446 ft 135 kts 133°
2026-04-30 18:34 36.71602 -4.55676 1041 ft 139 kts 134°
2026-04-30 18:34 36.70951 -4.54764 858 ft 138 kts 132°
2026-04-30 18:35 36.70317 -4.53875 676 ft 136 kts 132°
2026-04-30 18:35 36.69690 -4.52995 487 ft 135 kts 133°
2026-04-30 18:35 36.69077 -4.52129 319 ft 132 kts 132°
2026-04-30 18:36 36.67891 -4.50483 55 ft 111 kts 133°
2026-04-30 18:36 36.67498 -4.49922 51 ft 61 kts 131°
2026-04-30 18:36 36.67302 -4.49550 45 ft 15 kts 106°
2026-04-30 18:37 36.67280 -4.49430 43 ft 9 kts 101°
2026-04-30 18:37 36.67287 -4.49363 43 ft 8 kts 38°
2026-04-30 18:37 36.67333 -4.49336 42 ft 5 kts 38°
2026-04-30 18:37 36.67336 -4.49334 40 ft 1 kts 38°
2026-04-30 18:38 36.67343 -4.49327 41 ft 4 kts 38°
2026-04-30 18:38 36.67359 -4.49281 42 ft 7 kts 75°
2026-04-30 18:38 36.67393 -4.49262 42 ft 5 kts
2026-04-30 18:38 36.67424 -4.49255 42 ft 3 kts
2026-04-30 18:39 36.67435 -4.49253 42 ft 0 kts